Location: Blériot-Plage
(50.9575°N, 1.8224°E)
Time: 12:02:31
(UTC+00:00)

Cosmos 2227 Rocket - Pass Details

Date: 15 May 2026
Orbit: 837 x 844 km, 71.0° (Epoch: 5 June)

Event Time Altitude Azimuth Distance (km) Brightness Sun altitude
Exits shadow 22:55:54 14° 110° (ESE) 2,187 4.0 -19.0°
Maximum altitude 22:57:02 15° 97° (E) 2,140 4.1 -19.1°
Drops below altitude 10° 23:00:03 10° 64° (ENE) 2,472 4.8 -19.2°
Sets 23:03:35 0° 42° (NE) 3,413 5.9 -19.3°
